Погода в Радивоновке

Украина / Запорожская область     46°39′34″N   35°14′53″E
темп.,
°C
ветер,
м/с
пор.,
м/с
влажн.,
%
обл.,
%
осадки,
мм/ч
давл.,
гПа
погр.,
м
17 августа, ср
ср1700:00+23зюз33750 0.1 101080
03:00+22сз24780 0.4 101084
06:00+21з23830 0.0 101061
09:00+26юз23645 0.0 1010673
12:00+30ююз33434 0.0 10091726
15:00+32ююв343560 0.0 10082217
18:00+29ю574887 0.0 1008372
21:00+27юз585782 0.0 1008277
18 августа, чт
чт1800:00+24зюз486268 0.0 1008190
03:00+23з367052 1.3 1008118
06:00+22з227622 0.2 100819
09:00+27ююз22555 0.3 1008533
12:00+31ю44375 0.0 10081895
15:00+32ююв643726 0.0 10071411
18:00+29ю544441 0.7 1008469
21:00+24з35690 1.0 100898
19 августа, пт
пт1900:00+23ссз22704 0.0 100813
03:00+22сз22735 0.0 100813
06:00+22ссз22745 0.0 100815
09:00+27сз225412 0.0 1008477
12:00+32ссз223634 0.0 10081780
15:00+34ссв222894 0.0 10073319
18:00+31с344053 0.1 10081035
21:00+24св126769 0.9 100966
20 августа, сб
сб2000:00+23с237290 0.0 101064
03:00+22ссв227518 0.1 101019
06:00+21св3584100 0.0 1010125
09:00+26в346824 0.0 1011713
12:00+31вюв44435 0.0 10101632
15:00+32юв544173 0.0 10102168
18:00+29юв444993 0.1 1010708
21:00+25вюв34692 0.4 101184
21 августа, вс
вс2100:00+23в117114 0.0 101113
03:00+22св358090 0.4 101196
06:00+22в5108097 0.4 1011313
09:00+24в686197 1.1 1011651
12:00+28вюв7749100 0.1 10111074
15:00+29в673970 0.1 10101289
18:00+29в573571 0.1 10101322
21:00+25св474551 0.1 1009131